Date,TemperatureHighF,TemperatureAvgF,TemperatureLowF,DewpointHighF,DewpointAvgF,DewpointLowF,HumidityHigh,HumidityAvg,HumidityLow,PressureMaxIn,PressureMinIn,WindSpeedMaxMPH,WindSpeedAvgMPH,GustSpeedMaxMPH,PrecipitationSumIn
2013-2-12,73,67,61,70,65,59,96,94,88,29.93,29.77,0,0,0,0.31
2013-2-13,68,53,41,66,50,39,95,92,82,30.08,29.78,0,0,0,0.24
2013-2-14,82,51,37,59,43,34,97,78,37,30.18,30.05,0,0,0,0.00
2013-2-15,69,49,33,45,39,30,93,72,36,30.19,30.05,0,0,0,0.00
2013-2-16,55,47,30,41,29,19,74,52,27,30.31,30.10,0,0,0,0.00
2013-2-17,61,41,26,34,26,19,82,59,31,30.40,30.28,0,0,0,0.00
2013-2-18,67,50,32,54,42,26,91,73,52,30.30,30.03,0,0,0,0.00
2013-2-19,69,60,44,60,46,29,94,65,30,30.22,29.98,0,0,0,0.29
2013-2-20,60,47,38,32,29,26,73,51,30,30.29,30.09,0,0,0,0.00
2013-2-21,66,56,38,63,48,30,92,75,60,30.09,29.88,0,0,0,0.00
2013-2-22,68,66,62,66,63,58,95,91,81,29.99,29.86,0,0,0,0.89
2013-2-23,58,57,54,57,55,52,96,95,92,29.97,29.77,0,0,0,1.04
2013-2-24,70,58,47,60,53,46,96,86,67,30.00,29.82,0,0,0,0.31
2013-2-25,66,61,57,65,60,56,97,96,93,29.86,29.51,0,0,0,2.61
2013-2-26,66,58,49,63,47,42,97,70,47,29.92,29.54,0,0,0,0.00
2013-2-27,69,56,43,48,45,40,91,68,46,30.04,29.93,0,0,0,0.00
2013-2-28,60,50,40,44,37,31,89,63,36,30.11,30.00,0,0,0,0.00
2013-3-1,61,47,36,39,33,28,83,60,37,30.17,30.01,0,0,0,0.00
2013-3-2,48,39,29,31,27,23,82,63,49,30.23,30.11,0,0,0,0.00
2013-3-3,56,40,27,27,24,20,80,55,30,30.25,30.14,0,0,0,0.00
2013-3-4,69,50,30,52,42,25,90,74,52,30.18,29.99,0,0,0,0.00
2013-3-5,73,62,46,62,52,37,85,72,53,30.16,29.95,0,0,0,0.00
2013-3-6,63,49,39,38,31,28,82,53,30,30.29,30.16,0,0,0,0.00
2013-3-7,68,48,33,42,34,26,81,63,35,30.35,30.22,0,0,0,0.00
2013-3-8,75,52,34,45,38,30,89,63,29,30.32,30.19,0,0,0,0.00
2013-3-9,74,57,42,57,49,38,92,77,45,30.22,30.04,0,0,0,0.00
2013-3-10,75,65,57,64,60,54,93,83,70,30.06,29.94,0,0,0,0.00
2013-3-11,66,57,42,65,53,39,95,86,71,30.00,29.85,0,0,0,0.35
2013-3-12,68,52,39,42,38,35,92,64,37,30.20,30.00,0,0,0,0.00
2013-3-13,44,42,41,36,36,35,80,77,74,30.22,30.20,0,0,0,0.00
2013-3-17,77,67,57,65,61,55,93,80,62,30.02,29.90,0,0,0,0.00
2013-3-18,84,70,60,71,65,57,94,84,64,29.93,29.79,0,0,0,0.00
2013-3-19,81,66,57,65,52,43,94,64,36,30.05,29.89,0,0,0,0.00
2013-3-20,67,58,43,44,38,30,62,47,30,30.12,29.98,0,0,0,0.00
2013-3-21,71,54,39,38,32,28,71,47,24,30.09,29.90,0,0,0,0.00
2013-3-22,71,58,47,58,50,38,84,73,58,29.93,29.85,0,0,0,0.02
2013-3-23,75,66,60,69,62,53,96,87,75,29.89,29.60,0,0,0,0.69
2013-3-24,82,67,48,69,56,33,96,71,39,29.95,29.57,0,0,0,0.02
2013-3-25,60,48,37,33,28,21,72,47,25,30.23,29.95,0,0,0,0.00
2013-3-26,58,45,33,29,27,24,73,50,31,30.38,30.23,0,0,0,0.00
2013-3-27,66,46,28,40,30,22,83,58,30,30.45,30.29,0,0,0,0.00
2013-3-28,75,51,33,43,35,28,89,59,26,30.37,30.25,0,0,0,0.00
2013-3-29,77,56,37,54,44,32,88,66,40,30.35,30.22,0,0,0,0.00
2013-3-30,80,61,46,58,51,42,92,72,42,30.23,30.05,0,0,0,0.00
2013-3-31,83,66,53,66,59,50,93,80,52,30.08,29.91,0,0,0,0.25
2013-4-1,77,62,53,62,56,48,96,82,52,30.09,29.93,0,0,0,0.00
2013-4-2,85,64,48,57,51,45,94,67,35,30.14,30.02,0,0,0,0.00
2013-4-3,64,58,54,60,55,51,96,89,76,30.08,29.74,0,0,0,1.69
2013-4-4,76,60,54,63,55,50,94,83,64,29.97,29.87,0,0,0,0.00
2013-4-5,70,56,47,51,48,42,89,75,48,30.13,29.96,0,0,0,0.00
2013-4-6,79,58,40,56,46,37,91,69,32,30.18,30.10,0,0,0,0.00
2013-4-7,81,61,44,64,53,41,93,76,49,30.15,30.04,0,0,0,0.00
2013-4-8,82,69,57,69,63,53,95,81,62,30.09,29.99,0,0,0,0.00
2013-4-9,84,74,68,71,68,64,95,83,65,30.10,29.98,0,0,0,0.00
2013-4-10,82,72,65,72,68,63,95,85,69,30.05,29.89,0,0,0,0.00
2013-4-11,72,72,71,69,69,68,91,91,90,29.89,29.81,0,0,0,0.00
2013-4-14,65,64,63,64,63,62,95,95,95,29.85,29.80,0,0,0,0.00
2013-4-15,80,70,63,74,67,62,96,91,78,30.05,29.83,0,0,0,0.00
2013-4-16,88,75,66,74,69,63,95,83,62,30.13,30.03,0,0,0,0.00
2013-4-17,86,74,66,75,68,63,96,83,59,30.14,30.02,0,0,0,0.00
2013-4-18,81,73,65,73,69,63,96,88,76,30.02,29.88,0,0,0,0.00
2013-4-19,75,56,43,72,54,42,94,92,80,30.19,29.82,0,0,0,0.95
2013-4-20,71,54,39,46,42,37,95,68,37,30.28,30.13,0,0,0,0.00
2013-4-21,76,59,41,53,46,38,90,66,38,30.24,30.11,0,0,0,0.00
2013-4-22,83,64,49,65,56,45,89,76,51,30.16,30.05,0,0,0,0.00
2013-4-23,82,68,57,68,61,54,94,80,59,30.13,30.05,0,0,0,0.00
2013-4-24,74,66,59,70,64,57,95,91,82,30.16,29.97,0,0,0,0.33
2013-4-25,79,64,54,63,55,46,95,75,51,30.30,30.15,0,0,0,0.00
2013-4-26,85,68,53,61,51,45,78,58,39,30.32,30.22,0,0,0,0.00
2013-4-27,86,72,57,71,63,53,92,75,55,30.23,30.06,0,0,0,0.00
2013-4-28,82,73,65,72,66,62,95,79,65,30.09,29.97,0,0,0,0.00
2013-4-29,87,75,65,68,66,62,92,75,49,30.00,29.90,0,0,0,0.02
2013-4-30,83,73,65,71,68,64,95,85,65,29.97,29.89,0,0,0,0.51
2013-5-1,74,68,62,70,66,60,96,95,87,29.96,29.87,0,0,0,1.18
2013-5-2,72,66,62,68,64,61,97,94,83,29.99,29.88,0,0,0,0.96
2013-5-3,73,64,48,67,61,47,97,90,77,29.98,29.82,0,0,0,0.41
2013-5-4,72,56,44,47,42,39,94,64,31,29.99,29.88,0,0,0,0.04
2013-5-5,70,58,47,57,45,41,91,66,42,30.02,29.86,0,0,0,0.00
2013-5-6,76,59,46,55,48,40,88,69,44,30.03,29.92,0,0,0,0.00
2013-5-7,80,64,50,61,55,46,92,74,50,30.05,29.97,0,0,0,0.00
2013-5-8,85,68,55,67,60,52,93,75,48,30.12,30.02,0,0,0,0.00
2013-5-9,89,71,56,68,61,53,93,74,47,30.16,30.06,0,0,0,0.00
2013-5-10,76,67,64,68,64,60,94,88,72,30.16,29.91,0,0,0,0.39
2013-5-11,78,68,61,70,65,59,96,90,75,30.08,29.95,0,0,0,0.18
2013-5-12,82,70,61,63,59,54,95,71,48,30.14,30.01,0,0,0,0.02
2013-5-13,82,66,50,54,48,41,80,56,30,30.29,30.13,0,0,0,0.00
2013-5-14,90,68,51,62,55,47,90,66,36,30.30,30.17,0,0,0,0.10
2013-5-15,88,70,55,66,57,52,93,66,36,30.23,30.05,0,0,0,0.00
2013-5-16,65,64,64,58,57,56,82,78,73,30.07,30.02,0,0,0,0.00
2013-5-23,97,83,64,75,70,62,94,66,39,30.06,29.98,0,0,0,0.00
2013-5-24,91,78,67,70,65,55,92,67,43,30.18,30.03,0,0,0,0.00
2013-5-25,92,73,62,63,55,50,76,55,27,30.25,30.15,0,0,0,0.02
2013-5-26,92,74,59,67,62,55,90,68,39,30.22,30.14,0,0,0,0.00
2013-5-27,89,76,64,71,65,59,93,72,46,30.18,30.08,0,0,0,0.07
2013-5-28,92,74,58,74,66,55,94,78,52,30.11,30.05,0,0,0,0.02
2013-5-29,89,78,68,75,71,65,95,81,61,30.08,30.01,0,0,0,0.00
2013-5-30,89,80,73,76,72,70,91,79,61,30.08,30.00,0,0,0,0.00
2013-5-31,88,79,74,77,73,70,89,81,65,30.07,29.98,0,0,0,0.00
2013-6-1,89,79,74,79,74,71,94,87,69,30.03,29.96,0,0,0,0.10
2013-6-2,97,80,70,77,72,68,95,77,52,30.01,29.87,0,0,0,0.02
2013-6-3,87,78,69,79,74,67,94,88,73,29.94,29.86,0,0,0,0.73
2013-6-4,91,76,70,77,72,68,96,89,63,29.97,29.90,0,0,0,0.00
2013-6-5,94,81,68,79,73,65,94,79,57,29.98,29.86,0,0,0,0.51
2013-6-6,91,71,65,74,67,64,95,89,58,29.89,29.75,0,0,0,0.02
2013-6-7,90,78,68,74,69,66,94,76,53,29.90,29.79,0,0,0,0.00
2013-6-8,95,75,69,78,70,66,93,84,57,30.07,29.90,0,0,0,0.19
2013-6-9,77,73,69,74,71,67,96,93,90,30.03,29.93,0,0,0,0.36
2013-6-10,83,75,70,78,73,69,96,92,83,30.08,29.98,0,0,0,0.84
2013-6-11,99,80,70,82,74,69,96,84,53,30.12,30.02,0,0,0,0.45
2013-6-12,74,73,72,72,71,70,93,92,92,30.08,30.05,0,0,0,0.00
2013-6-21,81,75,72,75,72,70,94,90,78,30.11,30.07,0,0,0,0.08
2013-6-22,93,80,70,76,72,68,95,79,53,30.13,30.01,0,0,0,0.00
2013-6-23,83,76,72,78,74,69,95,92,82,30.10,30.04,0,0,0,1.08
2013-6-24,83,76,72,80,74,71,96,94,82,30.18,30.09,0,0,0,0.00
2013-6-25,96,85,71,81,76,70,95,75,58,30.14,30.03,0,0,0,0.02
2013-6-26,95,81,72,81,75,70,94,82,61,30.10,29.98,0,0,0,0.00
2013-6-27,98,84,74,81,76,71,94,77,52,30.03,29.92,0,0,0,0.00
2013-6-28,99,87,78,82,78,75,93,76,54,29.94,29.77,0,0,0,0.00
2013-6-29,100,84,73,80,75,68,91,75,52,29.82,29.68,0,0,0,0.47
2013-6-30,97,82,71,76,69,65,95,70,38,29.79,29.71,0,0,0,0.00
2013-7-1,93,81,70,70,67,64,87,65,43,29.92,29.78,0,0,0,0.00
2013-7-2,96,80,68,74,68,56,87,69,48,30.01,29.90,0,0,0,0.02
2013-7-3,90,79,73,76,72,68,90,80,61,30.03,29.94,0,0,0,0.00
2013-7-4,89,78,71,78,73,68,94,86,68,30.01,29.92,0,0,0,0.04
2013-7-5,76,74,72,75,72,70,96,93,90,30.10,29.99,0,0,0,0.47
2013-7-6,77,74,71,74,72,70,97,95,92,30.07,30.00,0,0,0,1.71
2013-7-7,78,75,72,76,74,71,97,96,95,30.13,30.03,0,0,0,0.64
2013-7-8,83,76,72,80,74,71,97,94,84,30.19,30.10,0,0,0,0.04
2013-7-9,95,80,69,82,74,68,96,83,62,30.20,30.09,0,0,0,0.04
2013-7-10,94,79,73,78,74,70,94,86,62,30.13,29.98,0,0,0,0.04
2013-7-11,79,75,72,77,74,70,95,94,90,30.03,29.89,0,0,0,2.45
2013-7-12,74,73,71,73,72,70,95,95,95,29.94,29.89,0,0,0,0.00
2013-7-20,92,83,78,79,75,73,85,76,65,30.02,29.93,0,0,0,0.00
2013-7-21,88,79,74,78,74,72,93,85,71,30.07,30.00,0,0,0,0.04
2013-7-22,84,75,71,79,73,70,95,92,81,30.09,30.01,0,0,0,1.14
2013-7-23,96,87,74,81,76,70,87,71,59,30.01,29.93,0,0,0,0.00
2013-7-24,96,82,74,80,76,70,93,81,56,29.97,29.88,0,0,0,0.02
2013-7-25,94,81,72,78,73,69,95,78,57,30.02,29.88,0,0,0,0.02
2013-7-26,98,83,71,78,72,68,92,73,42,30.06,29.97,0,0,0,0.00
2013-7-27,84,77,71,78,73,68,95,87,77,30.00,29.89,0,0,0,0.53
2013-7-28,91,80,70,79,75,69,96,85,66,30.01,29.87,0,0,0,0.05
2013-7-29,93,80,74,81,76,72,95,88,64,30.13,29.98,0,0,0,0.26
2013-7-30,97,83,74,82,77,72,95,82,61,30.17,30.06,0,0,0,0.00
2013-7-31,94,81,76,80,76,73,93,85,64,30.11,29.98,0,0,0,0.08
2013-8-1,97,81,72,81,75,70,94,85,56,30.02,29.92,0,0,0,0.14
2013-8-2,98,82,71,80,74,69,96,79,46,30.04,29.93,0,0,0,0.00
2013-8-3,99,84,73,79,74,70,94,75,45,30.08,29.99,0,0,0,0.00
2013-8-4,100,85,77,78,75,72,91,74,48,30.09,29.98,0,0,0,0.00
2013-8-5,98,81,74,80,74,71,93,82,54,30.05,29.96,0,0,0,0.35
2013-8-6,100,83,73,82,76,71,95,81,52,30.03,29.90,0,0,0,0.00
2013-8-7,91,85,80,81,78,74,89,78,70,29.98,29.92,0,0,0,0.00
2013-8-8,98,91,79,82,78,75,90,68,54,29.99,29.92,0,0,0,0.00
2013-8-9,95,85,79,80,76,74,84,76,61,30.06,29.97,0,0,0,0.00
2013-8-10,94,87,77,80,76,72,87,72,64,30.10,30.04,0,0,0,0.00
2013-8-11,91,80,73,82,76,70,94,87,67,30.14,30.08,0,0,0,0.67
2013-8-12,87,80,74,82,77,73,96,92,81,30.13,30.03,0,0,0,0.07
2013-8-14,76,76,76,72,72,72,89,89,89,29.95,29.95,0,0,0,0.00
2013-8-15,89,83,75,77,74,71,89,75,65,29.98,29.92,0,0,0,0.00
2013-8-16,89,78,72,76,72,70,95,85,61,30.01,29.93,0,0,0,1.46
2013-8-17,74,73,72,73,72,70,96,96,94,30.02,29.93,0,0,0,0.13
2013-8-18,78,73,70,77,72,68,97,97,96,30.03,29.96,0,0,0,2.71
2013-8-19,94,79,71,81,75,70,97,88,64,30.06,29.98,0,0,0,0.00
2013-8-20,85,77,70,79,73,68,94,89,79,30.10,30.00,0,0,0,0.06
2013-8-21,89,77,72,79,74,71,96,91,69,30.15,30.06,0,0,0,0.00
2013-8-26,86,74,71,72,71,70,95,90,58,30.18,30.11,114,114,114,0.00
2013-8-27,90,81,65,70,67,62,91,65,46,30.12,30.03,114,114,114,0.00
2013-8-28,95,89,77,73,72,68,72,56,50,30.06,30.01,114,114,114,0.00
2013-8-29,99,84,68,74,70,64,90,65,42,30.08,29.98,114,114,114,0.00
2013-8-30,96,85,71,75,72,67,88,67,49,30.04,29.92,114,19,114,0.00
2013-8-31,96,82,73,81,73,68,85,75,59,29.98,29.86,0,0,0,0.00
2013-9-1,95,78,71,80,73,67,94,86,58,29.97,29.88,0,0,0,0.53
2013-9-2,92,80,74,80,76,73,95,87,67,30.00,29.89,0,0,0,0.41
2013-9-3,97,80,71,83,73,69,94,83,60,30.00,29.87,0,0,0,0.39
2013-9-4,81,72,70,74,70,68,95,94,79,30.05,29.97,0,0,0,0.00
2013-9-5,98,88,77,79,76,73,87,69,55,30.10,30.03,0,0,0,0.00
2013-9-6,92,86,74,76,73,70,86,67,56,30.11,29.99,0,0,0,0.00
2013-9-7,95,80,69,74,71,66,92,75,48,30.07,29.97,0,0,0,0.00
2013-9-8,97,82,70,77,72,67,91,74,48,30.01,29.94,0,0,0,0.00
2013-9-9,95,80,70,77,71,67,91,75,53,30.06,29.97,0,0,0,0.00
2013-9-10,92,80,73,77,72,68,89,78,57,30.13,30.03,0,0,0,0.00
2013-9-11,74,73,72,70,69,69,91,89,88,30.11,30.08,0,0,0,0.00
2013-9-12,93,84,70,76,73,67,90,71,54,30.06,29.92,114,114,114,0.00
2013-9-13,95,84,70,76,73,68,92,70,48,29.93,29.83,114,114,114,0.00
2013-9-14,87,79,72,71,68,66,84,70,56,30.00,29.91,114,114,114,0.00
2013-9-15,94,80,67,76,70,62,86,72,51,30.07,29.99,114,114,114,0.00
2013-9-16,97,81,70,76,72,67,93,75,51,30.09,30.00,114,11,114,0.88
2013-9-17,95,84,73,77,74,71,92,74,52,30.08,29.98,0,0,0,0.00
2013-9-18,86,79,74,75,73,71,91,82,66,30.10,30.02,0,0,0,0.00
2013-9-19,90,80,74,76,72,69,89,77,55,30.09,29.99,0,0,0,0.00
2013-9-20,90,82,75,78,76,73,94,81,66,29.99,29.85,0,0,0,0.08
2013-9-21,77,75,71,75,74,70,96,95,93,29.85,29.73,0,0,0,0.49
2013-9-22,80,73,68,72,68,64,96,86,74,29.82,29.75,0,0,0,0.02
2013-9-23,91,82,67,78,74,63,91,78,63,29.89,29.81,0,0,0,0.00
2013-9-24,77,75,75,75,73,73,95,94,91,29.90,29.87,0,0,0,0.02
2013-9-25,91,77,71,75,71,68,96,84,54,29.84,29.77,114,114,114,0.00
2013-9-26,92,78,68,77,70,66,95,79,57,29.96,29.83,114,114,114,0.00
2013-9-27,86,75,66,69,66,61,89,76,56,30.06,29.96,114,114,114,0.00
2013-9-28,87,72,60,69,63,57,91,75,49,30.10,30.02,114,114,114,0.00
2013-9-29,82,76,62,68,65,59,90,71,62,30.07,29.97,114,36,114,0.00
2013-9-30,72,70,68,70,68,65,94,92,90,30.02,29.96,0,0,0,0.02
2013-10-1,89,85,80,72,71,68,71,63,56,30.06,29.98,0,0,0,0.02
2013-10-2,76,74,71,74,72,70,95,93,89,30.09,30.02,0,0,0,0.22
2013-10-3,75,72,71,73,71,70,96,95,92,30.06,29.98,0,0,0,0.44
2013-10-4,88,80,74,78,74,72,91,82,69,30.05,30.01,0,0,0,0.00
2013-10-5,88,79,72,78,74,70,96,86,66,30.05,29.95,0,0,0,0.00
2013-10-6,76,72,67,74,71,64,96,95,91,29.94,29.79,0,0,0,1.68
2013-10-7,78,68,62,64,56,53,93,69,45,30.02,29.88,0,0,0,0.00
2013-10-8,82,66,53,61,56,49,90,71,47,30.03,29.97,0,0,0,0.00
2013-10-9,82,70,61,72,65,56,93,82,69,30.11,30.00,0,0,0,0.00
2013-10-10,67,66,66,64,64,63,92,92,91,30.09,30.08,0,0,0,0.00
2013-10-13,86,80,70,72,68,63,80,66,54,30.17,30.07,114,114,114,0.00
2013-10-14,86,77,64,68,66,61,91,70,52,30.11,30.02,114,1,114,0.00
2013-10-15,85,72,63,71,65,60,93,80,58,30.08,29.96,0,0,0,0.00
2013-10-16,87,72,62,74,66,60,94,81,60,30.04,29.92,0,0,0,0.00
2013-10-17,84,75,67,76,69,63,93,83,74,29.98,29.90,0,0,0,0.06
2013-10-18,79,69,63,64,61,59,89,77,58,30.05,29.92,0,0,0,0.00
2013-10-19,66,63,62,63,60,57,94,87,78,30.03,29.91,0,0,0,0.36
2013-10-20,76,67,58,61,58,54,88,72,58,30.04,29.98,0,0,0,0.00
2013-10-21,73,64,56,63,58,54,91,83,68,30.08,29.98,0,0,0,0.00
2013-10-22,82,69,62,65,60,54,92,75,42,29.99,29.89,0,0,0,0.00
2013-10-23,75,62,50,55,48,42,86,64,35,30.14,29.98,0,0,0,0.00
2013-10-24,82,59,43,57,48,39,89,68,41,30.24,30.12,0,0,0,0.00
2013-10-25,68,57,47,52,45,36,86,66,41,30.39,30.21,0,0,0,0.00
2013-10-26,75,54,40,49,41,34,83,64,37,30.33,30.17,0,0,0,0.00
2013-10-27,76,59,44,60,51,40,92,76,54,30.19,30.10,0,0,0,0.00
2013-10-28,82,65,53,67,58,50,93,79,57,30.22,30.11,0,0,0,0.00
2013-10-29,80,65,53,67,59,50,94,81,61,30.28,30.19,0,0,0,0.00
2013-10-30,79,67,56,70,62,53,94,85,70,30.23,30.08,0,0,0,0.00
2013-10-31,82,74,66,72,68,64,93,84,71,30.09,29.87,0,0,0,0.03
2013-11-1,83,70,58,71,64,52,94,82,52,29.93,29.79,0,0,0,0.08
2013-11-2,77,61,48,56,50,43,91,68,43,30.14,29.90,0,0,0,0.00
2013-11-3,69,55,44,48,43,39,84,68,42,30.24,30.14,0,0,0,0.00
2013-11-4,72,58,42,57,50,38,90,74,56,30.29,30.18,0,0,0,0.00
2013-11-5,75,65,58,62,56,50,78,73,63,30.29,30.16,0,0,0,0.00
2013-11-6,77,67,58,69,62,52,89,82,76,30.18,30.07,0,0,0,0.00
2013-11-7,68,60,50,66,54,38,94,80,62,30.27,30.02,0,0,0,3.02
2013-11-8,66,52,42,41,37,35,76,58,38,30.33,30.18,0,0,0,0.42
2013-11-9,74,56,40,60,48,34,87,76,60,30.27,30.17,0,0,0,0.00
2013-11-10,76,61,50,58,53,46,88,76,53,30.27,30.17,0,0,0,0.02
2013-11-11,77,58,45,55,49,42,90,73,42,30.25,30.14,0,0,0,0.00
2013-11-12,71,55,42,54,45,25,89,70,52,30.44,30.17,0,0,0,10.85
2013-11-13,54,42,32,28,24,21,70,51,34,30.51,30.41,0,0,0,1.33
2013-11-14,32,30,30,24,23,23,76,74,71,30.42,30.39,0,0,0,0.00
2013-11-18,72,64,57,70,58,43,96,79,55,30.09,29.96,0,0,0,0.12
2013-11-19,65,54,44,43,40,35,75,60,43,30.15,30.03,0,0,0,0.00
2013-11-20,73,54,40,60,46,34,91,76,59,30.16,30.05,0,0,0,0.00
2013-11-21,69,60,54,62,56,51,91,87,79,30.25,30.16,0,0,0,0.00
2013-11-22,77,72,69,70,67,65,86,83,79,30.17,30.15,0,0,0,0.00
2013-11-24,52,46,41,30,28,28,60,51,41,30.34,30.29,0,0,0,0.00
2013-11-25,58,49,39,56,42,28,94,76,60,30.31,29.89,0,0,0,0.17
2013-11-26,66,52,43,64,50,41,95,93,90,29.93,29.71,0,0,0,1.08
2013-11-27,49,40,29,41,31,22,93,71,48,30.39,29.93,0,0,0,0.14
2013-11-28,50,35,26,30,26,21,84,70,42,30.49,30.36,0,0,0,0.00
2013-11-29,60,40,26,33,27,22,87,65,31,30.54,30.42,0,0,0,0.00
2013-11-30,68,45,29,50,36,24,86,74,49,30.45,30.27,0,0,0,0.00
2013-12-1,70,51,36,55,43,33,91,77,51,30.29,30.02,0,0,0,0.00
2013-12-2,75,58,45,59,51,42,92,78,55,30.03,29.81,0,0,0,0.00
2013-12-3,75,67,57,68,62,53,94,86,75,29.87,29.78,0,0,0,0.02
2013-12-4,78,71,65,72,68,63,95,91,82,29.98,29.86,0,0,0,0.06
2013-12-5,79,75,72,74,72,70,95,91,84,30.05,29.97,0,0,0,0.02
2013-12-6,80,73,53,74,70,51,93,89,78,30.17,29.98,0,0,0,0.53
2013-12-9,65,60,58,60,56,55,89,87,84,30.08,30.03,11,1,11,0.06
2013-12-10,59,47,38,57,42,34,92,83,72,30.36,30.03,0,0,0,0.21
2013-12-11,63,48,35,44,38,32,88,71,48,30.41,30.30,0,0,0,0.00
2013-12-12,51,50,48,38,37,35,62,61,58,30.41,30.39,0,0,0,0.00
2013-12-27,60,54,46,39,37,36,70,52,43,30.39,30.28,0,0,0,0.00
2013-12-28,53,47,45,46,44,38,94,89,56,30.28,29.94,0,0,0,2.38
2013-12-29,57,48,39,50,45,36,95,89,77,30.13,29.92,0,0,0,0.00
2013-12-30,59,47,37,53,44,35,94,88,79,30.31,30.11,0,0,0,0.00
2013-12-31,50,45,42,47,41,39,91,86,82,30.43,30.29,0,0,0,0.00
2014-1-1,60,50,42,57,48,40,95,92,87,30.34,30.05,0,0,0,0.12
2014-1-2,58,50,35,57,45,26,96,82,61,30.32,29.91,0,0,0,0.21